Regional Weather Roundup
Issued by NWS Upton, NY

Current Version | Previous Version | Text Only | Print | Product List | Glossary On
Versions: 1 2 3 4 5 6 7 8 9 10 11 12 13 14 15 16 17 18 19 20 21 22 23 24 25 26 27 28 29 30 31 32 33 34 35 36 37 38 39 40 41 42 43 44 45 46 47 48 49 50
000 ASUS41 KOKX 050018 RWROKX REGIONAL WEATHER ROUNDUP NATIONAL WEATHER SERVICE NEW YORK NY 800 PM EDT SAT JUL 04 2015 NOTE: "FAIR" INDICATES FEW OR NO CLOUDS BELOW 12,000 FEET WITH NO SIGNIFICANT WEATHER AND/OR OBSTRUCTIONS TO VISIBILITY. NYZ071-072-176-178-NJZ106-104-050100- NEW YORK CITY METRO AREA CITY SKY/WX TMP DP RH WIND PRES REMARKS CENTRAL PARK CLOUDY 73 54 51 E3 29.99R LAGUARDIA APRT MOCLDY 73 52 47 NE5 29.96R KENNEDY INTL MOCLDY 74 49 41 SE5 29.97R NEWARK/LIBERTY CLOUDY 75 56 51 CALM 29.96R BRNX BOT. GARD N/A 70 55 60 E1 29.97F TETERBORO CLOUDY 74 57 55 N3 29.96R $$ NYZ177-179-078>081-050100- LONG ISLAND NEW YORK CITY SKY/WX TMP DP RH WIND PRES REMARKS FARMINGDALE PTCLDY 71 60 68 NE5 29.97R ISLIP MOCLDY 71 58 63 N5 29.95R SHIRLEY CLEAR 71 57 61 CALM 29.97R WESTHAMPTON CLEAR 69 52 54 CALM 29.98R MONTAUK POINT N/A 69 57 65 CALM 29.97R $$ NYZ052-065-067-050100- HUDSON VALLEY CITY SKY/WX TMP DP RH WIND PRES REMARKS WHITE PLAINS MOCLDY 71 58 63 CALM 29.97R NEWBURGH PTCLDY 68 63 83 CALM 29.99R MONTGOMERY CLOUDY 69 63 81 CALM 29.97S POUGHKEEPSIE CLEAR 70 61 73 CALM 29.96S ALBANY PTCLDY 68 61 78 SE3 29.95F $$ NJZ001-105-106-008-010-013-015-019>022-104-050100- NEW JERSEY CITY SKY/WX TMP DP RH WIND PRES REMARKS NEWARK/LIBERTY CLOUDY 75 56 51 CALM 29.96R TETERBORO CLOUDY 74 57 55 N3 29.96R CALDWELL CLOUDY 72 56 57 CALM 29.98R MORRISTOWN CLOUDY 73 59 60 CALM 29.98R SOMERVILLE CLOUDY 72 57 59 N6 29.97R SUSSEX CLOUDY 70 60 70 CALM 29.98S ANDOVER N/A 67 62 84 CALM 30.00R TRENTON CLOUDY 73 52 47 CALM 29.97R MILLVILLE CLOUDY 73 62 68 E5 29.97R ATLANTIC CITY MOCLDY 71 60 68 E5 29.96R WRIGHTSTOWN CLOUDY 70 58 65 CALM 29.95R TOMS RIVER CLOUDY 72 57 60 CALM 29.98R BELMAR CLOUDY 72 52 49 CALM 29.97S $$ PAZ047>061-062-071-050100- EASTERN PENNSYLVANIA CITY SKY/WX TMP DP RH WIND PRES REMARKS PHILADELPHIA CLOUDY 72 62 71 NE8 29.98R ALLENTOWN CLOUDY 69 63 81 CALM 29.99R SCRANTON CLOUDY 67 62 84 CALM 30.00R $$ CTZ002-004>006-009-010-012-RIZ004-006-007-MAZ004-011-015-050100- SOUTHERN NEW ENGLAND IN CT CITY SKY/WX TMP DP RH WIND PRES REMARKS BRADLEY INTL PTCLDY 69 57 65 CALM 29.96S HARTFORD CLEAR 68 57 68 VRB5 29.96S DANBURY MOCLDY 70 53 54 N3 29.99R WTRBRY/OXFORD MOCLDY 66 55 68 N6 30.00R BRIDGEPORT CLOUDY 70 60 70 CALM 29.97R MERIDEN CLOUDY 71 58 63 N5 29.96R NEW HAVEN MOCLDY 68 53 58 VRB3 29.97R CHESTER FAIR 66 63 88 CALM 29.98R GROTON CLEAR 68 55 63 SW5 29.95R WILLIMANTIC CLEAR 70 60 70 NW3 29.97R IN RI CITY SKY/WX TMP DP RH WIND PRES REMARKS PROVIDENCE CLOUDY 72 55 55 NE7 29.95R BLOCK ISLAND PTCLDY 66 52 59 CALM 29.96R WESTERLY CLEAR 70 55 59 S3 29.96R IN MA CITY SKY/WX TMP DP RH WIND PRES REMARKS BOSTON PTCLDY 65 55 70 E6 29.95S WORCESTER CLEAR 66 57 72 CALM 29.98S WESTFIELD CLEAR 66 61 84 CALM 29.96S PROVINCETOWN CLOUDY 64 9 11 NE6 29.95S NANTUCKET PTCLDY 62 56 80 N12 29.92R $$ ANZ330-335-338-340-345-350-353-355-050100- COASTAL MARINE OBSERVATIONS STATION/POSITION TIME SKY/WX TEMP WIND PRES VSBY WAVE AIR SEA DIR/SP/G HT/PER (UTC) (F) (DEG/KT/KT) (MB) (MI) (FT/S) NY HARB ENTRANCE 2350 70 69 120/ 4/ 6 1014.3 2/ 8 4S FIRE IS 2303 70 N/A 3/ 8 20S FIRE ISLAND 2350 69 69 50/ 6/ 8 1014.3 3/ 8 GREAT SOUTH BAY 2300 70 75 120/ 8/ 10 N/A 23SW MTP 2350 68 69 60/ 8/ 8 1013.9 4/ 8 HUDSON CANYON NOT AVBL KINGS POINT 2300 72 67 CALM / 4 1013.5 CENTRAL LI SOUND NOT AVBL EASTERN LI SOUND 2300 67 64 360/ 2/ 4 N/A ROBBINS REEF 2300 74 70/ 1/ 2 1013.1 $$ >>>>>>>>>>>>>>>>>>>>>>>>>>>> KEY <<<<<<<<<<<<<<<<<<<<<<<<<<< > < > SKY/WX - SKY CONDITION/PRESENT WEATHER < > TMP - TEMPERATURE IN FAHRENHEIT < > DP - DEWPOINT IN FAHRENHEIT < > RH - RELATIVE HUMIDITY IN PERCENT < > WIND - DIRECTION AND SPEED IN MPH < > PRES - MEAN SEA LEVEL PRESSURE IN INCHES OF HG < > WCI - WIND CHILL INDEX < > VSB - VISIBILITY IN MILES < > HX - HEAT INDEX < > TC - TEMPERATURE IN CELSIUS < > VRB - VARIABLE WIND DIRECTION < > < >>>>>>>>>>>>>>>>>>>>>>>>>>>> KEY <<<<<<<<<<<<<<<<<<<<<<<<<<<

USA.gov is the U.S. government's official web portal to all federal, state and local government web resources and services.